Weather Roundup
Issued by NWS Springfield, MO

Home | Current Version | Previous Version | Text Only | Print | Product List | Glossary On
Versions: 1 2 3 4 5 6 7 8 9 10 11 12 13 14 15 16 17 18 19 20 21 22 23 24 25 26 27 28 29 30 31 32 33 34 35 36 37 38 39 40 41 42 43 44 45 46 47 48 49 50
000
NZUS99 KSGF 240407
HRRSGF

HOURLY WEATHER
NATIONAL WEATHER SERVICE SPRINGFIELD MO
1100 PM CDT FRI JUN 23 2017

......SGF CWA......

CITY           SKY/WX    TMP DP  RH WIND       PRES   REMARKS
SPRINGFIELD    CLEAR     68  57  68 N9        30.03R
JOPLIN         CLEAR     68  59  73 N7        30.06R
WEST PLAINS    CLOUDY    64  60  87 CALM      30.02R
ROLLA          PTCLDY    66  53  63 NW6       30.00R
OSAGE BEACH    CLEAR     68  52  56 VRB6      30.03R
BRANSON        CLEAR     66  63  88 CALM      30.04R

......SURROUNDING SGF CWA......

CITY           SKY/WX    TMP DP  RH WIND       PRES   REMARKS
CHANUTE        CLEAR     69  54  58 CALM      30.08R
PARSONS        CLEAR     68  51  54 N7        30.08R
COFFEYVILLE    CLEAR     70  57  63 N6        30.06R
EMPORIA        CLOUDY    66  55  67 CALM      30.10R
GROVE OK       CLEAR     72  63  73 CALM      30.04R
ROGERS AR      CLEAR     68  62  81 CALM      30.06R
SILOAM SPRINGS CLEAR     70  61  73 CALM      30.04R
HARRISON AR    CLOUDY    65  64  97 W5        30.04R
NEAR YELLVILLE CLOUDY    66  63  88 CALM      29.99R

......KANSAS AND MISSOURI......

CITY           SKY/WX    TMP DP  RH WIND       PRES   REMARKS
KANSAS CTY INT CLEAR     66  54  65 NW5       30.08R
DOWNTOWN KC    CLEAR     71  54  54 CALM      30.07R
COLUMBIA       CLEAR     70  55  59 NW10      30.02R
SEDALIA        CLEAR     66  57  72 NW6       30.06R
ST JOSEPH      CLEAR     63  56  78 CALM      30.07R
ST LOUIS       CLOUDY    75  54  47 NW8       29.96R
SPIRIT OF STL  CLEAR     72  56  57 NW10      29.95R
KIRKSVILLE     CLEAR     63  55  75 NW7       30.03R
WICHITA        CLOUDY    69  57  65 CALM      30.10R
TOPEKA         CLEAR     67  59  75 CALM      30.09R
OLATHE         CLEAR     68  55  63 N6        30.08R

......TENNESSEE......

CITY           SKY/WX    TMP DP  RH WIND       PRES   REMARKS
MEMPHIS        CLOUDY    73  72  96 NW5       29.93S
NASHVILLE      CLOUDY    78  74  87 W5        29.89S

......ARKANSAS.......

CITY           SKY/WX    TMP DP  RH WIND       PRES   REMARKS
FAYETTEVILLE   CLOUDY    65  64  97 CALM      30.04R
FT SMITH       CLEAR     74  70  87 NE5       30.00R
LITTLE ROCK    CLOUDY    70  70 100 N3        29.97R

......OKLAHOMA.......

CITY           SKY/WX    TMP DP  RH WIND       PRES   REMARKS
TULSA          CLOUDY    75  59  57 N9        30.02R
PONCA CITY     CLOUDY    72  55  55 N9        30.07R
MCALESTER      CLEAR     80  62  54 NE6       29.99R
OKLAHOMA CITY  CLOUDY    76  54  46 N17       30.05R

......IOWA............

CITY           SKY/WX    TMP DP  RH WIND       PRES   REMARKS
DES MOINES     PTCLDY    67  50  54 NW10      30.02R
QUAD CITIES    CLEAR     66  54  65 W8        29.92R

......ILLINOIS........

CITY           SKY/WX    TMP DP  RH WIND       PRES   REMARKS
QUINCY         CLEAR     65  56  72 NW6       29.98R
CHICAGO        PTCLDY    69  53  56 NW13      29.83R



USA.gov is the U.S. government's official web portal to all federal, state and local government web resources and services.